Miscellaneous Local Product
Issued by NWS Hastings, NE

Home | Current Version | Previous Version | Text Only | Print | Product List | Glossary On
Versions: 1 2 3 4 5 6 7 8 9 10 11 12 13 14 15 16 17 18 19 20 21 22 23 24 25 26 27 28 29 30 31 32 33 34 35 36 37 38 39 40 41 42 43 44 45 46 47 48 49 50
000
AXUS43 KGID 191702
MISGRI

GID CWA HOURLY WEATHER ROUNDUP
NATIONAL WEATHER SERVICE HASTINGS NE
1100 AM CST FRI DEC 19 2014

NOTE: "FAIR" INDICATES FEW OR NO CLOUDS BELOW 12,000 FEET WITH NO
SIGNIFICANT WEATHER AND/OR OBSTRUCTIONS TO VISIBILITY.

...SOUTH CENTRAL NEBRASKA...

CITY           SKY/WX    TMP DP  RH WIND       PRES   REMARKS
GRAND ISLAND   CLOUDY    30  28  92 SW10      30.17R FOG     WCI  21
HASTINGS       CLOUDY    30  28  92 SW6       30.16S FOG     WCI  24
KEARNEY        CLOUDY    27  25  93 S9        30.15S VSB 3/4 WCI  17
ORD            NOT AVBL
YORK           CLOUDY    32  28  86 S8        30.19S WCI  25
AURORA         CLOUDY    32  30  92 S9        30.17S FOG     WCI  24
LEXINGTON      CLOUDY    26  25  96 S3        30.12S FOG
HOLDREGE       FOG       28  28  96 SW6       30.14R VSB 1/4 WCI  22
HEBRON         CLOUDY    32  28  87 S7        30.22S FOG     WCI  25

...NEBRASKA PANHANDLE...

CITY           SKY/WX    TMP DP  RH WIND       PRES   REMARKS
CHADRON        SUNNY     31  19  61 W10       30.04R WCI  22
ALLIANCE       SUNNY     19  14  81 W6        30.03S WCI  11
SCOTTSBLUFF    SUNNY     19  17  92 N5        30.06S WCI  12
SIDNEY         SUNNY     32  19  58 W8        30.07S WCI  25

...WESTERN AND NORTH CENTRAL NEBRASKA...

CITY           SKY/WX    TMP DP  RH WIND       PRES   REMARKS
VALENTINE      SUNNY     26  20  77 SW10      30.02F WCI  16
AINSWORTH      MOSUNNY   21  18  86 S5        30.03F WCI  15
ONEILL         FOG       26  26 100 S6        30.10S VSB 1/4 WCI  19
BROKEN BOW     SUNNY     26  25  96 SE5       30.08F WCI  20
IMPERIAL       SUNNY     31  25  78 W6        30.10F WCI  25
NORTH PLATTE   SUNNY     28  23  81 W7        30.09F WCI  21
MCCOOK         SUNNY     27  24  89 W5        30.13S WCI  22

...EASTERN NEBRASKA...

CITY           SKY/WX    TMP DP  RH WIND       PRES   REMARKS
NORFOLK        CLOUDY    31  28  89 S12       30.15S WCI  22
SO SIOUX CITY  CLOUDY    33  28  81 S10       30.20S WCI  25
TEKAMAH        CLOUDY    34  30  85 S10       30.22F FOG     WCI  26
COLUMBUS       CLOUDY    32  25  74 S8        30.19F WCI  25
ALBION         CLOUDY    28  26  91 S8        30.15S FOG     WCI  20
OMAHA EPPLEY   CLOUDY    33  29  85 S10       30.25S FOG     WCI  25
OFFUTT AFB     CLOUDY    32  29  90 SE5       30.24S WCI  28
MILLARD        CLOUDY    33  30  88 S7        30.24S FOG     WCI  27
LINCOLN        CLOUDY    33  28  81 S9        30.24S WCI  25
NEBRASKA CITY  CLOUDY    31  30  96 S7        30.26R WCI  24
BEATRICE       CLOUDY    31  29  90 SE5       30.24S WCI  27
FALLS CITY     CLOUDY    29  26  89 S7        30.28R WCI  22

...NORTHERN KANSAS...

CITY           SKY/WX    TMP DP  RH WIND       PRES   REMARKS
GOODLAND       PTSUNNY   39  29  67 W12       30.14S WCI  32
HILL CITY      PTSUNNY   31  28  89 VRB3      30.18S
NORTON         SUNNY     30  25  80 SW3       30.15S
PHILLIPSBURG   CLOUDY    36  34  93 SW5       30.19S FOG     WCI  32
SMITH CENTER   CLOUDY    32  30  93 SE7       30.20S FOG     WCI  26
BELOIT         CLOUDY    32  30  93 S9        30.23S WCI  24
HAYS           CLOUDY    37  28  70 S8        30.19F WCI  31
RUSSELL        CLOUDY    34  32  92 S8        30.20R FOG     WCI  27
CONCORDIA      CLOUDY    32  29  88 S13       30.23S FOG     WCI  22
SALINA         CLOUDY    32  28  85 S7        30.26S WCI  26
TOPEKA         CLOUDY    32  29  88 S5        30.31R FOG     WCI  27



USA.gov is the U.S. government's official web portal to all federal, state and local government web resources and services.